Wind_Speed
43 43 43 42 41 41 41 41 41 41 40 39 39 39 40 40 41 42 42 43 43 44 45 46 46 46 46 46 46 46 45 44 44 44 43 43 42 42
42 43 43 42 41 41 41 41 40 40 39 38 39 39 40 40 41 41 42 43 44 44 45 45 45 45 45 45 45 44 43 43 43 43 42 42 42 41
39 41 41 41 41 41 40 40 40 40 39 39 40 41 40 40 41 41 42 42 43 44 44 44 44 43 43 43 42 42 42 41 41 40 41 41 39 38
38 39 40 40 40 40 40 40 39 40 40 40 40 41 41 41 41 42 42 42 43 43 44 44 43 42 41 41 41 41 40 39 39 39 39 38 37 37
39 38 38 38 38 38 39 38 38 39 40 40 40 40 41 41 42 42 42 42 43 43 43 42 40 39 39 39 39 39 39 38 38 38 38 37 36 35
37 37 38 38 37 36 37 36 37 38 38 38 39 39 39 40 40 41 41 41 42 42 42 40 39 39 38 38 38 38 38 37 37 36 36 35 34 33
35 36 37 37 37 36 35 36 36 36 37 37 37 37 37 37 38 39 39 40 41 40 39 39 39 38 37 37 37 37 37 36 34 34 34 33 32 31
35 36 36 36 35 35 35 35 36 35 35 36 36 36 36 36 36 37 37 37 37 37 36 36 37 37 37 37 36 35 34 33 33 32 32 31 31 31
35 35 35 35 35 35 35 35 35 34 35 35 35 36 36 36 35 35 35 35 34 34 34 34 35 35 35 34 33 32 33 32 31 30 30 30 30 30
35 35 35 34 34 34 35 35 34 34 34 35 35 36 35 35 34 33 32 32 32 33 33 32 33 33 33 32 32 32 31 30 29 29 29 29 28 29
35 34 33 32 33 33 34 34 33 34 34 34 33 32 33 33 32 32 31 31 31 31 31 31 31 31 30 30 30 30 29 28 28 28 28 27 27 27
34 33 33 32 32 32 32 32 33 33 32 31 31 31 31 31 31 30 30 30 30 30 31 31 30 29 28 28 28 28 28 27 27 27 27 26 26 25
33 33 32 32 31 31 31 31 32 31 30 30 30 31 31 31 30 29 29 29 30 30 30 29 28 27 27 27 27 26 26 25 25 25 25 25 24 23
32 32 32 32 31 31 30 30 30 30 29 29 29 29 29 29 28 29 29 29 29 28 28 28 26 26 26 26 25 24 24 23 22 22 22 23 22 21
32 31 31 31 30 30 30 30 29 28 28 28 28 28 27 27 27 27 28 29 28 28 27 26 26 25 26 25 23 22 21 21 21 21 21 21 19 19
31 30 30 29 29 29 30 29 29 28 27 26 26 26 26 26 26 26 27 27 27 27 27 26 26 25 24 23 22 21 21 20 21 21 20 19 18 18
29 29 29 29 28 28 28 27 26 25 25 24 24 24 24 24 25 25 25 26 26 25 25 25 25 24 22 21 20 20 20 20 20 19 18 18 17 18
27 27 27 26 26 26 25 25 24 24 24 23 23 23 23 23 24 24 25 25 24 24 24 23 22 21 21 20 19 18 18 18 18 17 16 15 16 16
25 25 25 24 24 23 23 23 23 23 23 23 22 22 21 22 23 23 23 23 22 22 21 21 19 18 18 17 17 16 15 15 14 13 13 14 14 14
23 23 23 23 23 22 22 22 22 21 21 21 21 21 21 21 21 21 20 20 20 19 18 18 16 16 15 14 14 13 12 12 12 12 12 13 13 13
21 21 21 21 21 22 22 21 21 21 20 20 19 19 19 19 19 18 18 17 17 17 16 15 14 13 12 12 10 10 10 10 10 11 11 11 10 11
21 21 21 21 21 20 20 21 20 20 19 18 17 16 16 16 16 16 15 15 15 15 14 13 12 11 10 9 7 7 7 8 8 9 9 8 9 10
19 20 21 20 20 20 20 19 18 18 17 17 16 15 15 14 13 13 13 12 12 11 11 9 8 7 6 5 4 5 5 6 6 7 8 8 9 11
Wind_Direction
267 267 267 267 269 269 269 272 275 277 278 279 280 283 284 287 288 291 293 295 297 298 299 300 301 303 303 303 303 303 303 302 301 301 301 301 300 298
268 268 267 268 269 269 270 272 274 275 277 277 279 282 284 287 289 290 292 294 296 298 299 300 301 303 303 304 303 303 303 302 301 302 302 301 301 299
269 269 269 269 269 270 270 272 273 274 276 278 279 281 284 286 288 290 292 294 295 297 298 299 301 302 303 304 303 302 303 304 303 302 302 302 302 301
270 270 270 269 270 269 270 272 272 273 276 277 279 281 283 285 286 289 292 293 295 297 298 299 300 302 303 303 304 304 303 304 305 304 304 304 304 302
272 270 269 269 269 269 270 271 272 273 275 278 279 281 282 284 286 289 291 293 295 296 297 299 300 301 303 304 305 306 305 305 305 305 305 305 305 304
272 270 268 269 270 271 271 272 272 274 276 278 279 280 282 283 285 288 291 292 294 296 296 297 299 300 302 304 306 307 308 307 307 307 306 306 306 306
273 272 270 271 271 269 270 272 274 274 276 277 279 281 282 284 286 288 290 292 294 295 296 298 300 301 303 305 306 308 310 310 309 309 308 308 307 307
274 273 271 273 272 271 272 273 275 276 276 277 279 281 284 285 286 289 290 291 292 294 296 299 301 302 304 306 307 308 311 311 311 310 309 309 309 308
275 274 273 274 272 272 272 273 274 274 276 278 279 281 283 285 287 289 291 293 294 295 297 300 301 303 306 307 307 308 310 312 311 310 311 311 311 311
273 273 273 271 272 272 272 272 272 273 275 277 279 281 283 284 287 289 291 294 296 297 298 299 301 304 306 307 308 309 310 312 312 312 313 313 313 313
272 272 271 272 272 272 272 273 272 273 274 276 279 281 283 285 287 288 289 293 295 297 297 299 301 304 306 308 309 310 311 312 313 314 314 314 314 314
271 271 271 272 271 272 273 273 274 276 276 277 280 282 284 285 287 288 288 290 293 295 296 299 301 303 305 307 309 309 310 311 313 314 315 315 315 315
269 269 270 270 271 272 274 274 275 276 277 277 279 282 284 285 286 287 287 290 294 296 297 298 301 303 305 308 308 309 310 311 313 314 316 317 319 319
267 267 268 270 270 273 274 276 276 276 277 278 280 282 283 284 285 286 287 291 294 296 297 299 301 302 305 307 308 309 310 312 314 316 318 321 322 323
265 265 266 269 269 271 273 274 275 277 277 279 281 282 282 282 283 285 288 291 292 294 297 300 301 302 304 306 307 308 310 312 314 317 321 323 323 325
263 265 266 268 269 271 273 274 274 276 277 279 281 282 282 282 283 285 288 291 293 293 295 298 300 302 304 305 306 308 309 311 314 317 322 324 326 328
263 265 266 267 268 271 273 274 274 275 277 280 282 283 283 283 284 286 287 290 293 293 294 295 298 300 302 304 304 305 307 312 316 320 321 323 327 333
262 264 266 267 267 269 270 272 273 275 278 280 281 283 284 283 284 285 287 290 293 295 295 295 296 299 301 301 301 303 307 313 317 321 325 327 331 337
263 263 265 265 265 267 269 271 273 275 278 279 280 281 283 284 285 286 288 290 292 295 297 297 297 298 299 297 299 302 308 314 319 324 330 334 337 342
263 263 263 265 265 267 269 270 273 276 279 279 279 280 281 284 286 287 288 290 292 295 298 299 298 299 300 300 301 305 310 317 323 330 337 341 344 349
261 262 264 267 268 268 269 269 271 275 277 277 277 279 281 284 286 287 289 291 293 296 299 299 299 299 301 304 305 309 317 323 330 336 342 349 354 357
261 263 265 265 266 268 269 270 273 275 275 275 274 275 277 282 284 286 289 291 294 297 298 298 297 298 301 305 308 316 323 329 335 344 352 357 5 14
263 264 265 263 265 267 269 272 273 274 273 272 271 270 274 279 280 284 288 292 296 299 300 299 299 300 303 309 315 322 332 342 352 3 11 19 25 27
Height
5680 5681 5681 5682 5682 5682 5681 5681 5681 5681 5681 5679 5677 5675 5673 5670 5668 5665 5661 5657 5653 5648 5644 5639 5633 5628 5622 5616 5610 5604 5598 5592 5586 5580 5574 5568 5563 5557
5671 5671 5671 5672 5672 5671 5671 5671 5670 5670 5670 5669 5667 5665 5663 5660 5657 5654 5651 5647 5642 5638 5633 5628 5623 5617 5611 5605 5599 5593 5587 5581 5575 5570 5564 5558 5553 5547
5661 5661 5661 5661 5661 5661 5661 5661 5660 5660 5659 5658 5657 5655 5653 5650 5647 5644 5640 5636 5632 5627 5623 5618 5613 5607 5601 5595 5589 5583 5577 5572 5566 5560 5554 5549 5543 5538
5651 5651 5651 5651 5651 5651 5651 5651 5650 5649 5649 5648 5647 5645 5643 5640 5637 5634 5630 5626 5621 5617 5612 5607 5602 5597 5591 5586 5580 5574 5568 5562 5557 5551 5545 5540 5534 5529
5641 5641 5641 5641 5641 5641 5641 5641 5640 5639 5638 5638 5636 5634 5632 5630 5627 5623 5620 5616 5611 5607 5602 5597 5592 5587 5582 5577 5571 5565 5559 5553 5548 5542 5537 5531 5525 5520
5631 5631 5631 5632 5632 5631 5631 5631 5630 5630 5629 5627 5626 5624 5622 5619 5616 5613 5610 5606 5602 5597 5592 5587 5582 5577 5573 5568 5562 5557 5551 5545 5539 5533 5528 5523 5517 5512
5622 5622 5622 5622 5622 5622 5621 5621 5620 5620 5619 5617 5616 5614 5611 5609 5606 5603 5600 5596 5592 5587 5583 5578 5573 5569 5564 5558 5553 5548 5542 5537 5531 5526 5520 5515 5510 5505
5613 5613 5612 5613 5612 5612 5611 5611 5611 5610 5609 5607 5606 5604 5602 5599 5597 5594 5590 5587 5584 5580 5574 5569 5564 5560 5555 5550 5545 5540 5535 5530 5524 5519 5514 5508 5503 5498
5604 5604 5604 5603 5602 5602 5602 5601 5601 5600 5599 5598 5596 5594 5592 5591 5588 5585 5581 5577 5574 5570 5566 5562 5557 5552 5547 5542 5537 5533 5528 5523 5518 5512 5507 5502 5497 5492
5595 5595 5595 5594 5593 5593 5592 5592 5591 5590 5589 5588 5587 5585 5583 5581 5579 5576 5573 5569 5565 5561 5558 5555 5550 5545 5540 5535 5530 5526 5521 5516 5511 5506 5501 5496 5491 5486
5586 5585 5585 5585 5584 5583 5583 5582 5581 5581 5579 5578 5577 5575 5573 5571 5569 5566 5564 5561 5558 5555 5551 5548 5544 5539 5534 5529 5524 5519 5514 5510 5505 5501 5496 5491 5486 5481
5577 5576 5576 5575 5575 5574 5573 5573 5572 5571 5570 5569 5567 5566 5564 5562 5560 5558 5555 5553 5550 5548 5544 5540 5536 5532 5529 5524 5518 5513 5509 5504 5500 5495 5490 5485 5481 5476
5567 5567 5567 5566 5566 5565 5565 5564 5563 5562 5561 5560 5559 5557 5555 5554 5552 5550 5547 5545 5543 5540 5537 5533 5529 5525 5521 5518 5514 5508 5504 5499 5495 5490 5485 5481 5476 5472
5558 5558 5558 5558 5557 5557 5556 5555 5554 5554 5553 5552 5551 5549 5548 5546 5544 5542 5540 5537 5535 5532 5529 5525 5522 5518 5514 5511 5508 5504 5499 5494 5490 5486 5482 5477 5473 5468
5549 5549 5549 5548 5548 5548 5547 5547 5546 5545 5544 5544 5543 5541 5540 5538 5536 5534 5532 5530 5527 5524 5521 5518 5515 5512 5508 5504 5501 5498 5495 5491 5487 5483 5479 5475 5470 5466
5539 5539 5539 5539 5539 5539 5539 5538 5538 5537 5537 5536 5535 5534 5532 5531 5529 5527 5525 5523 5521 5518 5514 5512 5508 5505 5502 5499 5496 5493 5490 5487 5483 5479 5475 5471 5467 5463
5530 5530 5531 5531 5531 5531 5531 5530 5530 5529 5529 5529 5527 5526 5525 5524 5522 5520 5518 5516 5514 5512 5509 5506 5502 5499 5496 5494 5492 5489 5486 5483 5479 5476 5472 5469 5465 5461
5521 5522 5523 5523 5523 5523 5523 5523 5523 5522 5522 5521 5520 5519 5518 5517 5515 5514 5512 5510 5508 5505 5503 5500 5498 5495 5493 5490 5488 5485 5482 5479 5476 5473 5470 5467 5463 5459
5513 5514 5515 5515 5516 5516 5516 5516 5516 5516 5515 5514 5514 5513 5512 5510 5509 5507 5505 5503 5501 5499 5497 5495 5493 5490 5489 5487 5484 5482 5479 5477 5474 5471 5468 5465 5462 5458
5506 5507 5508 5508 5509 5509 5509 5509 5509 5509 5508 5507 5507 5506 5505 5504 5503 5501 5499 5498 5496 5494 5492 5490 5488 5486 5484 5483 5481 5479 5477 5475 5472 5470 5467 5464 5461 5457
5500 5501 5501 5502 5502 5502 5502 5502 5502 5502 5501 5501 5500 5500 5499 5498 5497 5495 5494 5492 5491 5489 5488 5486 5484 5483 5481 5479 5478 5477 5475 5473 5471 5469 5466 5464 5461 5458
5494 5495 5495 5495 5496 5496 5496 5496 5496 5495 5495 5494 5494 5494 5493 5493 5492 5491 5490 5488 5487 5485 5484 5482 5481 5480 5478 5477 5476 5475 5474 5472 5470 5468 5465 5463 5461 5458
5488 5488 5489 5489 5489 5490 5490 5489 5489 5489 5489 5489 5489 5488 5488 5488 5487 5487 5486 5485 5483 5482 5481 5480 5478 5477 5477 5476 5475 5474 5473 5471 5470 5468 5466 5463 5461 5458